TimeEDT,TemperatureF,Dew PointF,Humidity,Sea Level PressureIn,VisibilityMPH,Wind Direction,Wind SpeedMPH,Gust SpeedMPH,PrecipitationIn,Events,Conditions,WindDirDegrees,DateUTC
12:55 AM,57.9,52.0,81,29.96,10.0,SE,3.5,-,N/A,,Partly Cloudy,130,2013-07-22 04:55:00
1:55 AM,60.1,54.0,80,29.95,10.0,SE,3.5,-,N/A,,Overcast,130,2013-07-22 05:55:00
2:55 AM,61.0,53.1,75,29.94,10.0,ESE,4.6,-,N/A,,Overcast,110,2013-07-22 06:55:00
3:55 AM,60.1,54.0,80,29.92,10.0,East,3.5,-,N/A,,Overcast,90,2013-07-22 07:55:00
4:55 AM,60.1,55.0,83,29.90,10.0,East,4.6,-,N/A,,Overcast,80,2013-07-22 08:55:00
5:55 AM,61.0,55.0,81,29.90,10.0,East,3.5,-,N/A,,Overcast,90,2013-07-22 09:55:00
6:55 AM,61.0,55.9,83,29.89,10.0,East,4.6,-,N/A,,Overcast,90,2013-07-22 10:55:00
7:55 AM,62.1,57.0,84,29.88,10.0,ESE,4.6,-,N/A,,Mostly Cloudy,110,2013-07-22 11:55:00
8:55 AM,66.0,59.0,78,29.86,10.0,SE,9.2,-,N/A,,Clear,130,2013-07-22 12:55:00
9:55 AM,69.1,60.1,73,29.85,10.0,SSE,11.5,-,N/A,,Scattered Clouds,150,2013-07-22 13:55:00
10:13 AM,69.1,60.1,73,29.85,10.0,SSE,11.5,-,N/A,,Mostly Cloudy,150,2013-07-22 14:13:00
10:28 AM,71.1,61.0,70,29.85,10.0,SE,9.2,-,N/A,,Scattered Clouds,140,2013-07-22 14:28:00
10:38 AM,72.0,61.0,68,29.84,10.0,SE,8.1,-,N/A,,Mostly Cloudy,140,2013-07-22 14:38:00
10:55 AM,71.1,61.0,70,29.83,10.0,SSE,10.4,-,N/A,,Mostly Cloudy,150,2013-07-22 14:55:00
11:03 AM,73.0,62.1,68,29.84,10.0,SSE,12.7,-,N/A,,Scattered Clouds,150,2013-07-22 15:03:00
11:13 AM,73.0,62.1,68,29.83,10.0,SSE,11.5,-,N/A,,Mostly Cloudy,150,2013-07-22 15:13:00
11:23 AM,73.0,61.0,66,29.83,10.0,SSE,9.2,-,N/A,,Scattered Clouds,160,2013-07-22 15:23:00
11:55 AM,73.9,62.1,66,29.81,10.0,SSE,9.2,-,N/A,,Clear,150,2013-07-22 15:55:00
12:55 PM,77.0,62.1,60,29.79,10.0,South,10.4,17.3,N/A,,Mostly Cloudy,180,2013-07-22 16:55:00
1:55 PM,77.0,62.1,60,29.76,10.0,SE,9.2,-,N/A,,Mostly Cloudy,140,2013-07-22 17:55:00
2:55 PM,79.0,63.0,58,29.75,10.0,South,9.2,-,N/A,,Mostly Cloudy,170,2013-07-22 18:55:00
3:55 PM,78.1,64.0,62,29.73,10.0,SSE,10.4,18.4,N/A,,Mostly Cloudy,150,2013-07-22 19:55:00
4:55 PM,78.1,64.9,64,29.71,10.0,SSE,10.4,-,N/A,,Mostly Cloudy,150,2013-07-22 20:55:00
5:55 PM,78.1,64.9,64,29.68,10.0,SSE,12.7,-,N/A,,Partly Cloudy,160,2013-07-22 21:55:00
6:55 PM,77.0,64.9,66,29.67,10.0,SSE,8.1,-,N/A,,Clear,150,2013-07-22 22:55:00
7:55 PM,75.0,66.0,73,29.66,10.0,South,8.1,-,N/A,,Mostly Cloudy,170,2013-07-22 23:55:00
8:55 PM,73.9,64.0,71,29.64,10.0,South,8.1,-,N/A,,Mostly Cloudy,190,2013-07-23 00:55:00
9:55 PM,73.9,63.0,68,29.63,10.0,SSW,8.1,-,N/A,,Scattered Clouds,200,2013-07-23 01:55:00
10:55 PM,73.0,64.0,73,29.60,10.0,South,8.1,-,N/A,,Mostly Cloudy,190,2013-07-23 02:55:00
11:55 PM,73.0,64.0,73,29.59,10.0,SSW,15.0,21.9,0.00,Rain,Light Rain,200,2013-07-23 03:55:00